Weather History for PAHN - October, 2012

Change the Weather History Date:

Wednesday, October 3, 2012

  Actual Average Record
Temperature  
Mean Temperature 42 °F -  
Max Temperature 46 °F 49 °F 57 °F (1976)
Min Temperature 39 °F 40 °F 21 °F (1974)
Degree Days  
Heating Degree Days 22    
Moisture  
Dew Point 38 °F    
Average Humidity 86    
Maximum Humidity 96    
Minimum Humidity 71    
Precipitation  
Precipitation 0.00 in - - ()
Sea Level Pressure  
Sea Level Pressure 30.51 in    
Wind  
Wind Speed 2 mph (WNW)    
Max Wind Speed 8 mph    
Max Gust Speed -    
Visibility 10 miles    
Events Rain    
Averages and records for this station are not official NWS values.
T = Trace of Precipitation, MM = Missing Value Source: NWS Daily Summary

Daily Weather History Graph

Daily Weather History Graph

Search for Another Location

Airport or City:

Trip Planner

Search our weather history database for the weather conditions in past years. The results will help you decide how hot, cold, wet, or windy it might be!

Date:

Astronomy

Oct. 03, 2012 Rise Set
Actual Time 7:13 AM AKDT 6:27 PM AKDT
Civil Twilight 6:32 AM AKDT 7:07 PM AKDT
Nautical Twilight 5:45 AM AKDT 7:54 PM AKDT
Astronomical Twilight 4:55 AM AKDT 8:43 PM AKDT
Moon 7:20 PM AKDT (10/3) 11:45 AM AKDT (10/3)
Length of Visible Light 12h 34m
Length of Day
11h 13m
Waning Gibbous, 88% of the Moon is Illuminated
Oct 3
Waning Gibbous
Oct 7
Last Quarter
Oct 15
New
Oct 21
First Quarter
Oct 29
Full

Hourly Weather History & Observations

Time (AKDT) Temp. Windchill Dew Point Humidity Pressure Visibility Wind Dir Wind Speed Gust Speed Precip Events Conditions
12:54 AM 41.0 °F 38.0 °F 37.0 °F 86% 30.52 in 10.0 mi East 4.6 mph - N/A   Overcast
1:54 AM 44.1 °F 42.5 °F 37.9 °F 79% 30.52 in 10.0 mi East 3.5 mph - 0.00 in   Overcast
2:46 AM 42.8 °F - 39.2 °F 87% 30.51 in 10.0 mi Calm Calm - 0.00 in Rain Light Rain
2:54 AM 42.1 °F - 39.0 °F 89% 30.52 in 10.0 mi Calm Calm - 0.00 in   Overcast
3:54 AM 39.0 °F - 37.0 °F 93% 30.51 in 10.0 mi Calm Calm - N/A   Overcast
4:43 AM 42.8 °F - 39.2 °F 87% 30.50 in 10.0 mi Calm Calm - 0.00 in   Overcast
4:54 AM 42.1 °F - 39.0 °F 89% 30.51 in 10.0 mi Calm Calm - 0.00 in   Overcast
5:54 AM 39.9 °F - 37.9 °F 93% 30.51 in 10.0 mi Calm Calm - N/A   Overcast
6:05 AM 39.2 °F 35.9 °F 37.4 °F 93% 30.50 in 10.0 mi WNW 4.6 mph - N/A   Overcast
6:54 AM 39.0 °F 35.7 °F 37.0 °F 93% 30.51 in 10.0 mi WNW 4.6 mph - N/A   Overcast
7:54 AM 39.0 °F - 37.0 °F 93% 30.50 in 10.0 mi Calm Calm - N/A   Overcast
8:54 AM 39.9 °F - 37.9 °F 93% 30.51 in 10.0 mi Calm Calm - N/A   Overcast
9:54 AM 39.9 °F 35.1 °F 37.9 °F 93% 30.51 in 10.0 mi WNW 6.9 mph - 0.00 in   Overcast
10:54 AM 42.1 °F 39.2 °F 37.9 °F 85% 30.51 in 10.0 mi WNW 4.6 mph - N/A   Overcast
11:54 AM 43.0 °F 38.2 °F 37.9 °F 82% 30.52 in 10.0 mi WNW 8.1 mph - N/A   Overcast
12:54 PM 45.0 °F 43.5 °F 37.9 °F 76% 30.52 in 10.0 mi West 3.5 mph - N/A   Overcast
1:54 PM 46.9 °F - 37.9 °F 71% 30.51 in 10.0 mi SSE 3.5 mph - N/A   Overcast
2:54 PM 45.0 °F - 37.9 °F 76% 30.51 in 10.0 mi Calm Calm - N/A   Overcast
3:54 PM 46.0 °F - 37.9 °F 73% 30.51 in 10.0 mi Calm Calm - N/A   Overcast
4:54 PM 46.0 °F - 39.0 °F 76% 30.50 in 10.0 mi Calm Calm - N/A   Overcast
5:54 PM 45.0 °F - 37.9 °F 76% 30.51 in 10.0 mi Calm Calm - N/A   Overcast
6:54 PM 43.0 °F - 39.0 °F 86% 30.51 in 10.0 mi Calm Calm - N/A   Overcast
7:54 PM 41.0 °F - 37.9 °F 89% 30.51 in 10.0 mi Calm Calm - N/A   Overcast
8:54 PM 42.1 °F - 39.0 °F 89% 30.51 in 10.0 mi Calm Calm - N/A   Overcast
9:54 PM 42.1 °F - 39.0 °F 89% 30.52 in 10.0 mi Calm Calm - N/A   Overcast
10:54 PM 42.1 °F - 39.0 °F 89% 30.51 in 10.0 mi Calm Calm - N/A   Overcast
11:54 PM 41.0 °F - 39.9 °F 96% 30.51 in 10.0 mi Calm Calm - N/A   Overcast